Weather History for KLNP - February, 2014

Change the Weather History Date:

Sunday, February 2, 2014

  Actual Average Record
Temperature  
Mean Temperature 44 °F -  
Max Temperature 53 °F 41 °F 55 °F (2006)
Min Temperature 35 °F 25 °F 14 °F (2013)
Degree Days  
Heating Degree Days 21    
Moisture  
Dew Point 43 °F    
Average Humidity 93    
Maximum Humidity 100    
Minimum Humidity 76    
Precipitation  
Precipitation 0.55 in - - ()
Sea Level Pressure  
Sea Level Pressure 30.03 in    
Wind  
Wind Speed 12 mph (WSW)    
Max Wind Speed 20 mph    
Max Gust Speed 29 mph    
Visibility 7 miles    
Events Fog , Rain , Snow    
Averages and records for this station are not official NWS values.
T = Trace of Precipitation, MM = Missing Value Source: NWS Daily Summary

Daily Weather History Graph

Daily Weather History Graph

Search for Another Location

Airport or City:

Trip Planner

Search our weather history database for the weather conditions in past years. The results will help you decide how hot, cold, wet, or windy it might be!

Date:

Astronomy

Feb. 02, 2014 Rise Set
Actual Time 7:31 AM EST 5:56 PM EST
Civil Twilight 7:04 AM EST 6:23 PM EST
Nautical Twilight 6:33 AM EST 6:54 PM EST
Astronomical Twilight 6:03 AM EST 7:25 PM EST
Moon 9:03 AM EST (2/2) 9:32 PM EST (2/2)
Length of Visible Light 11h 19m
Length of Day
10h 24m
Waxing Crescent, 11% of the Moon is Illuminated
Feb 2
Waxing Crescent
Feb 6
First Quarter
Feb 14
Full
Feb 22
Last Quarter
Mar 1
New

Hourly Weather History & Observations

Time (EST) Temp. Windchill Dew Point Humidity Pressure Visibility Wind Dir Wind Speed Gust Speed Precip Events Conditions
12:15 AM 42.8 °F 36.2 °F 35.6 °F 76% 30.04 in 10.0 mi WSW 12.7 mph - N/A   Clear
12:35 AM 44.6 °F 37.2 °F 37.4 °F 76% 30.05 in 10.0 mi WSW 17.3 mph 25.3 mph N/A   Clear
12:55 AM 44.6 °F 38.4 °F 37.4 °F 76% 30.05 in 10.0 mi SW 12.7 mph - N/A   Clear
1:15 AM 44.6 °F 37.2 °F 37.4 °F 76% 30.04 in 10.0 mi WSW 17.3 mph - N/A   Scattered Clouds
1:35 AM 44.6 °F 37.8 °F 37.4 °F 76% 30.04 in 10.0 mi WSW 15.0 mph 20.7 mph N/A   Clear
1:55 AM 44.6 °F 37.4 °F 37.4 °F 76% 30.04 in 10.0 mi WSW 16.1 mph - N/A   Clear
2:15 AM 44.6 °F 37.8 °F 39.2 °F 81% 30.04 in 10.0 mi WSW 15.0 mph 23.0 mph N/A   Clear
2:35 AM 44.6 °F 38.8 °F 39.2 °F 81% 30.03 in 10.0 mi SW 11.5 mph - N/A   Clear
2:55 AM 44.6 °F 38.8 °F 39.2 °F 81% 30.03 in 10.0 mi WSW 11.5 mph 17.3 mph N/A   Clear
3:15 AM 44.6 °F 38.8 °F 41.0 °F 87% 30.03 in 10.0 mi SW 11.5 mph - N/A   Clear
3:35 AM 44.6 °F 38.4 °F 41.0 °F 87% 30.03 in 10.0 mi SW 12.7 mph - N/A   Clear
3:55 AM 44.6 °F 37.8 °F 41.0 °F 87% 30.02 in 10.0 mi SW 15.0 mph 20.7 mph N/A   Mostly Cloudy
4:15 AM 44.6 °F 38.4 °F 41.0 °F 87% 30.02 in 10.0 mi SW 12.7 mph - N/A   Overcast
4:35 AM 44.6 °F 38.1 °F 41.0 °F 87% 30.00 in 10.0 mi SW 13.8 mph - N/A   Overcast
4:55 AM 46.4 °F 41.1 °F 41.0 °F 81% 29.99 in 10.0 mi SW 11.5 mph - N/A   Mostly Cloudy
5:15 AM 44.6 °F 38.8 °F 41.0 °F 87% 30.00 in 10.0 mi WSW 11.5 mph - N/A   Overcast
5:35 AM 44.6 °F 38.1 °F 41.0 °F 87% 30.00 in 10.0 mi WSW 13.8 mph - N/A   Overcast
5:55 AM 44.6 °F 38.1 °F 41.0 °F 87% 30.00 in 10.0 mi WSW 13.8 mph 19.6 mph N/A   Overcast
6:15 AM 44.6 °F 39.7 °F 41.0 °F 87% 30.00 in 10.0 mi WSW 9.2 mph - N/A   Overcast
6:35 AM 44.6 °F 39.7 °F 42.8 °F 93% 30.00 in 10.0 mi SW 9.2 mph - N/A   Mostly Cloudy
6:55 AM 46.4 °F 39.8 °F 42.8 °F 87% 30.01 in 10.0 mi SW 16.1 mph 19.6 mph N/A   Mostly Cloudy
7:15 AM 46.4 °F 40.4 °F 42.8 °F 87% 30.01 in 10.0 mi SW 13.8 mph 20.7 mph N/A   Overcast
7:35 AM 46.4 °F 40.7 °F 42.8 °F 87% 30.02 in 10.0 mi SW 12.7 mph - N/A   Overcast
7:55 AM 46.4 °F 40.1 °F 42.8 °F 87% 30.02 in 10.0 mi SW 15.0 mph 21.9 mph N/A   Mostly Cloudy
8:15 AM 48.2 °F - 42.8 °F 82% 30.02 in 10.0 mi SSW 19.6 mph - N/A   Scattered Clouds
8:35 AM 50.0 °F - 44.6 °F 82% 30.03 in 10.0 mi SW 18.4 mph 27.6 mph N/A   Scattered Clouds
8:55 AM 48.2 °F - 44.6 °F 87% 30.05 in 10.0 mi SW 19.6 mph 26.5 mph N/A   Overcast
9:15 AM 48.2 °F - 44.6 °F 87% 30.05 in 10.0 mi SW 15.0 mph 26.5 mph N/A   Overcast
9:35 AM 48.2 °F - 44.6 °F 87% 30.05 in 10.0 mi SW 17.3 mph 23.0 mph N/A   Overcast
9:55 AM 48.2 °F - 44.6 °F 87% 30.05 in 10.0 mi SW 17.3 mph - N/A   Overcast
10:15 AM 50.0 °F - 44.6 °F 82% 30.06 in 10.0 mi SW 19.6 mph 28.8 mph N/A   Overcast
10:35 AM 48.2 °F - 44.6 °F 87% 30.08 in 10.0 mi WSW 17.3 mph 25.3 mph N/A   Overcast
10:55 AM 46.4 °F 40.1 °F 46.4 °F 100% 30.09 in 10.0 mi WSW 15.0 mph 27.6 mph N/A   Overcast
11:15 AM 46.4 °F 40.7 °F 46.4 °F 100% 30.09 in 10.0 mi WSW 12.7 mph - N/A   Overcast
11:35 AM 46.4 °F 41.5 °F 46.4 °F 100% 30.08 in 5.0 mi SW 10.4 mph - N/A   Light Drizzle
11:55 AM 46.4 °F 42.9 °F 46.4 °F 100% 30.07 in 5.0 mi SW 6.9 mph - N/A   Overcast
12:15 PM 48.2 °F - 48.2 °F 100% 30.07 in 7.0 mi SSW 11.5 mph - N/A   Overcast
12:35 PM 48.2 °F - 48.2 °F 100% 30.05 in 7.0 mi SSW 6.9 mph - N/A   Overcast
12:55 PM 50.0 °F - 50.0 °F 100% 30.03 in 10.0 mi SSW 9.2 mph - N/A   Overcast
1:15 PM 53.6 °F - 53.6 °F 100% 30.02 in 10.0 mi WSW 8.1 mph - N/A   Overcast
1:35 PM 51.8 °F - 51.8 °F 100% 30.02 in 10.0 mi WSW 6.9 mph - N/A   Overcast
1:55 PM 51.8 °F - 51.8 °F 100% 30.02 in 10.0 mi WSW 9.2 mph - N/A   Overcast
2:15 PM 51.8 °F - 51.8 °F 100% 30.03 in 10.0 mi WSW 10.4 mph - N/A   Overcast
2:35 PM 50.0 °F - 50.0 °F 100% 30.02 in 10.0 mi SW 9.2 mph - N/A   Overcast
2:55 PM 50.0 °F - 50.0 °F 100% 30.02 in 10.0 mi WSW 9.2 mph - N/A   Light Drizzle
3:15 PM 50.0 °F - 50.0 °F 100% 30.02 in 10.0 mi SW 9.2 mph - N/A   Overcast
3:35 PM 48.2 °F - 48.2 °F 100% 30.03 in 7.0 mi SW 8.1 mph - N/A   Overcast
3:55 PM 48.2 °F - 48.2 °F 100% 30.03 in 3.0 mi SW 8.1 mph - N/A   Overcast
4:15 PM 46.4 °F 42.4 °F 46.4 °F 100% 30.02 in 1.5 mi SW 8.1 mph - N/A   Overcast
4:35 PM 46.4 °F 44.3 °F 46.4 °F 100% 30.02 in 2.5 mi SSW 4.6 mph - N/A   Overcast
4:55 PM 46.4 °F - 46.4 °F 100% 30.02 in 0.8 mi Calm Calm - N/A   Overcast
5:15 PM 46.4 °F - 46.4 °F 100% 30.03 in 1.2 mi Calm Calm - N/A   Light Drizzle
5:35 PM 44.6 °F - 44.6 °F 100% 30.03 in 2.0 mi Calm Calm - N/A Rain Light Rain
5:55 PM 44.6 °F 42.2 °F 44.6 °F 100% 30.04 in 1.8 mi South 4.6 mph - N/A   Overcast
6:15 PM 44.6 °F 43.1 °F 44.6 °F 100% 30.02 in 0.5 mi SSW 3.5 mph - N/A Fog Fog
6:35 PM 46.4 °F 44.3 °F 46.4 °F 100% 30.02 in 0.5 mi SW 4.6 mph - N/A Fog Fog
6:55 PM 44.6 °F 42.2 °F 44.6 °F 100% 30.03 in 0.5 mi SSW 4.6 mph - N/A Fog Fog
7:15 PM 46.4 °F - 46.4 °F 100% 30.02 in 0.5 mi Calm Calm - N/A   Light Drizzle
7:35 PM 46.4 °F - 46.4 °F 100% 30.02 in 0.5 mi Calm Calm - 0.01 in   Light Drizzle
7:55 PM 46.4 °F 42.9 °F 46.4 °F 100% 30.02 in 1.5 mi NNW 6.9 mph - 0.06 in Rain Rain
8:15 PM 44.6 °F 38.8 °F 44.6 °F 100% 30.00 in 0.5 mi North 11.5 mph 16.1 mph 0.01 in Rain Light Rain
8:35 PM 42.8 °F 37.0 °F 42.8 °F 100% 30.00 in 0.8 mi North 10.4 mph - 0.01 in   Light Drizzle
8:55 PM 41.0 °F 38.0 °F 41.0 °F 100% 30.01 in 0.2 mi NNW 4.6 mph - 0.02 in Rain Light Rain
9:15 PM 41.0 °F 35.8 °F 41.0 °F 100% 30.01 in 3.0 mi North 8.1 mph - 0.04 in Rain Rain
9:35 PM 37.4 °F 31.4 °F 37.4 °F 100% 30.03 in 5.0 mi NNW 8.1 mph - 0.08 in Rain Light Rain
9:55 PM 37.4 °F 29.8 °F 37.4 °F 100% 30.02 in 4.0 mi North 11.5 mph - 0.13 in Rain Rain
10:15 PM 35.6 °F 29.9 °F 35.6 °F 100% 30.01 in 3.0 mi NNW 6.9 mph - 0.05 in Rain Rain
10:35 PM 35.6 °F 28.6 °F 35.6 °F 100% 30.01 in 3.0 mi North 9.2 mph - 0.13 in Rain Rain
10:55 PM 35.6 °F 29.2 °F 35.6 °F 100% 30.00 in 3.0 mi NNE 8.1 mph - 0.20 in Rain Rain
11:15 PM 35.6 °F 31.7 °F 35.6 °F 100% 30.00 in 3.0 mi NE 4.6 mph - 0.04 in Rain Rain
11:35 PM 35.6 °F 31.7 °F 35.6 °F 100% 29.99 in 2.0 mi NNE 4.6 mph - 0.08 in Rain Rain
11:55 PM 35.6 °F 32.8 °F 35.6 °F 100% 29.99 in 2.5 mi North 3.5 mph - 0.14 in Snow Snow